Location: Kosice
(0.0000°N, 21.2500°E)
Time: 05:36:44
(UTC+01:00)

Cosmos 1825 - Pass Details

Date: 24 January 2021
Orbit: 501 x 507 km, 82.5° (Epoch: 04 March)

Event Time Altitude Azimuth Distance (km) Brightness Sun altitude
Rises 19:27:53 0° 188° (S) 2,597 6.2 -23.7°
Reaches altitude 10° 19:30:01 10° 191° (S) 1,711 5.2 -24.2°
Enters shadow 19:33:03 53° 220° (SW) 626 2.8 -24.9°
